Wind_Speed
36 36 36 36 35 35 35 35 36 35 34 33 34 34 33 34 35 35 36 36 36 37 38 38 39 39 40 41 40 41 42 44 46 48 49 49 48 49 50 50 51 53 53 54
37 36 36 36 35 35 35 35 35 35 34 34 34 34 34 34 35 35 36 36 36 37 37 37 38 39 40 41 40 41 42 43 44 46 47 47 47 49 49 49 49 50 51 51
37 36 36 35 34 34 35 34 35 35 34 33 34 34 34 34 35 35 35 35 35 35 36 36 37 39 40 40 41 41 41 42 42 42 44 45 46 47 47 48 47 48 48 46
37 36 36 35 34 34 34 34 34 35 35 35 35 34 34 34 35 34 35 35 34 34 35 36 37 38 39 40 41 41 40 40 40 41 43 43 44 45 46 47 47 48 49 48
36 36 36 34 34 34 35 34 35 35 35 35 35 34 34 35 34 34 34 34 34 34 33 34 35 37 38 38 39 38 38 38 39 40 41 43 43 44 44 46 47 48 48 48
36 37 37 35 34 34 35 35 35 35 35 34 34 34 33 33 33 33 33 32 32 32 32 33 34 35 36 36 36 36 36 37 37 39 40 41 41 41 42 44 46 47 48 48
36 37 36 35 35 34 34 34 34 34 34 34 34 34 33 32 32 32 32 31 32 32 32 32 33 33 33 33 34 35 35 34 35 35 37 39 40 40 41 43 44 45 46 46
34 35 35 35 34 34 34 33 34 34 34 34 33 32 32 31 31 31 31 31 31 31 31 31 31 31 32 32 33 33 34 34 34 35 36 37 38 39 41 42 42 43 44 44
34 34 34 34 33 33 33 33 34 33 33 32 32 31 31 31 31 31 31 30 30 29 30 30 30 30 31 31 31 32 32 32 33 33 35 37 38 39 39 40 42 43 43 44
32 32 32 32 32 32 32 32 32 31 31 31 31 31 31 31 30 30 30 30 29 28 29 29 29 29 30 30 31 31 31 32 33 33 34 36 38 39 39 40 41 42 42 43
31 31 31 31 31 31 31 30 30 30 31 31 31 30 30 30 30 29 28 28 28 29 29 28 28 28 29 29 29 30 30 31 31 32 33 35 36 37 38 38 39 41 42 43
30 30 31 31 30 30 30 30 30 30 30 30 30 30 29 29 28 28 28 28 28 28 29 28 27 27 27 27 27 27 29 29 29 30 31 33 34 35 37 37 38 39 40 41
29 29 30 30 30 30 30 30 29 29 29 30 29 29 28 28 28 28 29 28 28 28 28 27 27 27 26 26 26 27 27 28 28 29 29 31 32 34 34 35 36 37 38 39
29 29 29 29 29 29 29 29 29 29 29 29 29 28 28 28 28 28 28 28 28 28 28 27 27 26 26 26 26 26 26 26 27 27 28 29 30 32 34 34 34 34 36 37
28 28 29 29 29 29 29 28 28 28 29 29 29 29 29 29 29 29 29 29 29 28 27 26 26 25 25 25 26 26 25 25 25 25 27 27 28 30 32 33 33 33 34 36
28 28 29 29 29 28 28 28 28 28 28 28 28 28 28 29 29 29 29 29 28 27 26 25 25 25 24 25 25 25 24 23 24 24 25 25 26 27 28 30 31 32 33 35
28 29 28 28 28 28 27 27 27 27 27 27 27 27 28 28 29 29 28 28 27 26 25 25 24 23 23 24 24 24 24 23 23 23 24 24 25 26 27 28 28 29 31 32
29 28 28 28 28 27 27 27 26 26 26 26 27 27 28 29 29 28 27 26 26 25 25 25 24 23 23 23 23 23 23 22 22 23 23 24 24 25 26 27 28 28 29 30
27 28 27 27 27 27 27 27 26 26 26 26 26 27 28 28 27 27 26 26 26 26 25 25 24 24 23 23 23 22 22 22 22 22 23 23 23 24 24 25 25 27 27 28
27 27 27 26 26 26 26 26 26 26 26 26 26 27 27 26 26 25 25 25 25 25 25 25 24 24 24 23 23 22 22 21 21 21 22 22 23 24 25 25 25 26 26 27
26 26 26 26 26 26 26 26 26 26 26 26 26 26 26 26 26 25 25 24 24 25 24 24 23 23 23 22 22 21 20 20 19 19 19 20 21 22 23 24 24 24 24 25
26 26 25 25 25 25 26 26 25 25 25 25 25 26 26 25 25 25 24 24 24 24 24 23 23 22 22 22 21 20 19 19 18 18 18 18 18 18 18 19 19 20 21 21
25 25 25 25 25 25 25 25 24 24 24 25 25 25 25 25 24 24 24 24 24 24 23 23 22 22 21 21 20 20 19 18 18 17 17 16 16 16 16 17 17 18 18 19
25 24 25 25 25 25 24 24 24 24 24 24 24 24 24 24 23 23 23 23 23 23 22 22 21 20 19 19 19 19 18 17 17 16 16 16 16 16 17 17 17 18 18 19
24 24 24 24 24 23 23 23 23 23 23 23 23 23 23 22 22 22 22 22 22 22 22 21 21 19 19 19 18 18 17 17 16 16 16 16 16 17 17 17 18 18 19 19
24 23 23 22 22 22 22 22 22 22 22 22 22 22 22 22 22 21 22 22 22 22 21 21 20 19 19 18 18 18 17 16 16 16 16 16 16 16 16 17 17 17 18 19
23 22 22 22 21 22 22 22 21 21 21 22 22 22 22 22 22 22 22 22 22 21 21 20 19 18 18 17 17 17 16 16 16 16 16 16 16 16 16 16 16 16 17 17
Wind_Direction
301 300 299 299 298 297 296 295 296 297 297 298 297 295 294 293 290 289 288 285 281 279 277 274 272 271 269 266 266 263 262 260 258 255 253 253 252 252 252 251 251 250 249 250
300 299 298 298 297 296 295 295 295 296 297 297 298 296 294 293 292 290 289 287 284 281 277 275 273 272 271 269 267 265 265 263 260 257 253 252 251 250 250 249 250 250 250 250
300 300 298 297 299 298 296 296 295 295 297 296 296 297 297 295 293 292 291 288 285 283 279 276 274 272 271 269 270 269 267 263 259 256 253 253 252 251 250 249 250 248 248 249
300 300 298 300 298 296 297 297 296 295 295 295 296 298 298 297 296 293 292 290 288 286 281 277 275 274 273 271 270 270 268 264 260 256 254 252 252 252 251 249 249 247 247 248
300 300 298 299 298 297 296 296 296 296 295 294 296 297 298 298 298 296 293 291 289 287 284 281 278 275 275 273 270 269 267 264 260 257 255 253 253 252 251 250 250 249 248 248
300 299 299 300 298 297 296 296 296 296 296 295 295 296 296 297 298 298 296 293 290 288 286 284 282 280 277 274 270 268 267 265 262 258 255 253 252 251 251 250 250 250 248 247
299 298 298 299 298 297 296 297 296 296 297 297 298 297 297 298 299 299 298 295 292 290 289 287 284 282 280 276 272 270 270 266 263 260 256 254 254 253 252 250 250 249 248 247
300 299 299 299 297 297 297 296 297 297 297 298 299 298 297 298 299 299 298 297 295 293 291 289 286 283 281 278 274 272 269 266 263 261 258 255 255 254 252 251 249 247 247 248
300 300 299 298 298 298 297 297 297 298 298 298 299 299 299 299 299 298 298 297 296 295 294 292 288 285 283 280 276 273 270 267 264 263 260 257 254 254 253 252 250 248 248 249
300 302 300 299 299 299 298 298 297 298 298 299 299 300 301 301 300 298 297 297 296 296 296 294 290 288 285 281 277 274 272 268 267 265 261 258 255 254 254 253 250 248 248 248
299 301 300 299 300 299 299 298 298 299 300 301 301 301 301 301 301 300 299 298 297 297 296 295 292 289 286 283 279 275 273 269 268 266 264 260 257 256 254 252 252 250 249 248
299 300 300 300 299 298 298 298 298 299 300 301 301 301 300 301 301 300 299 299 298 298 299 295 291 289 286 283 280 279 276 271 270 268 264 261 259 257 255 254 252 251 251 249
298 300 300 301 299 299 299 298 297 298 299 301 302 302 301 301 301 301 301 300 299 299 300 298 293 289 286 281 280 281 279 273 270 267 265 263 261 258 256 255 254 252 251 249
298 300 301 302 302 300 299 299 299 299 300 300 301 301 301 302 302 302 301 301 300 300 300 299 296 292 288 283 282 282 279 275 270 267 265 265 264 260 257 255 254 253 251 248
299 300 301 302 302 302 301 300 301 301 302 301 301 301 302 302 302 302 302 302 301 300 297 296 296 294 291 287 285 284 280 276 271 269 268 267 265 263 260 257 255 253 252 248
300 301 302 302 302 302 303 302 302 302 302 302 301 301 302 303 304 304 303 303 302 300 297 295 295 293 291 289 289 286 281 277 274 273 272 269 266 264 262 258 255 255 253 250
301 302 302 302 303 303 304 304 304 303 303 302 301 302 304 305 305 305 304 303 302 300 298 296 294 292 291 291 290 287 282 279 277 275 273 272 268 265 262 260 258 257 255 253
301 301 302 303 304 305 305 306 306 305 304 303 302 303 304 305 305 305 304 303 302 302 301 299 297 293 292 292 291 286 282 279 278 276 274 271 268 264 262 261 259 258 256 254
300 301 302 303 305 305 306 306 306 306 306 306 306 306 306 307 307 306 304 303 302 301 301 300 298 295 293 292 291 287 284 282 281 278 276 272 269 265 264 263 261 260 259 256
303 303 303 304 306 306 306 306 307 307 307 308 308 309 309 310 309 309 307 307 305 304 302 301 299 296 294 294 292 290 288 286 285 280 277 275 272 270 268 265 264 262 260 258
303 304 305 306 306 306 306 306 307 307 308 309 309 310 310 311 311 311 309 308 308 306 304 302 300 297 296 295 294 293 291 290 287 283 280 278 275 272 270 268 265 262 261 259
304 305 306 306 306 306 306 307 307 307 308 309 310 311 311 311 311 311 310 309 309 308 306 304 301 299 297 295 294 293 293 291 290 287 285 282 277 274 270 266 264 262 261 259
305 306 306 306 306 305 306 306 307 307 308 310 311 312 312 312 311 311 310 311 311 311 308 304 301 299 297 295 294 293 292 291 291 289 287 282 279 275 272 270 267 265 263 261
306 306 306 306 306 306 306 306 307 308 309 310 312 313 313 313 313 313 312 312 313 313 311 307 304 300 296 294 293 292 291 290 291 290 288 284 280 277 273 270 268 265 263 263
308 308 309 309 308 307 307 307 307 309 310 311 312 312 313 314 314 314 313 313 314 315 314 311 307 302 297 293 292 292 290 288 288 290 288 285 281 277 274 272 269 266 266 265
310 311 311 310 310 310 310 310 310 311 312 312 313 313 313 313 314 314 314 314 314 314 315 314 310 303 298 294 291 291 291 289 289 291 291 288 284 280 277 274 271 269 268 266
312 312 312 311 311 311 311 311 311 311 312 312 312 313 313 313 313 313 313 315 314 312 312 313 311 306 300 296 292 292 292 292 292 292 291 289 285 282 279 276 274 274 272 269
Height
5610 5606 5603 5599 5596 5592 5587 5583 5580 5577 5574 5572 5567 5563 5560 5556 5553 5550 5547 5544 5542 5540 5538 5536 5535 5533 5532 5532 5531 5531 5531 5531 5533 5534 5537 5539 5542 5545 5548 5550 5554 5558 5561 5565
5602 5597 5593 5590 5587 5583 5578 5575 5571 5568 5566 5563 5558 5554 5551 5547 5544 5540 5537 5534 5531 5529 5527 5525 5523 5522 5521 5520 5519 5518 5518 5518 5519 5520 5523 5526 5528 5531 5534 5537 5540 5544 5547 5550
5592 5588 5583 5581 5578 5574 5570 5566 5563 5558 5557 5553 5549 5545 5541 5538 5534 5531 5527 5524 5521 5518 5516 5514 5513 5511 5509 5508 5507 5506 5505 5505 5506 5507 5510 5512 5515 5518 5521 5524 5527 5530 5533 5537
5581 5578 5574 5575 5569 5564 5560 5558 5553 5550 5547 5543 5540 5536 5532 5528 5524 5521 5517 5514 5511 5508 5506 5504 5502 5500 5498 5497 5495 5495 5494 5493 5494 5495 5497 5500 5503 5505 5508 5511 5514 5517 5520 5523
5571 5567 5564 5564 5560 5555 5551 5549 5545 5541 5537 5534 5530 5527 5524 5519 5515 5511 5508 5504 5501 5498 5496 5494 5492 5489 5487 5486 5485 5484 5484 5483 5484 5485 5486 5489 5491 5493 5496 5499 5501 5504 5507 5510
5561 5556 5554 5555 5550 5545 5542 5539 5537 5532 5528 5524 5521 5518 5516 5510 5506 5502 5498 5495 5492 5489 5486 5484 5482 5479 5477 5476 5475 5474 5474 5474 5474 5474 5476 5478 5480 5482 5484 5486 5489 5491 5495 5497
5552 5547 5545 5544 5540 5536 5533 5531 5526 5522 5519 5515 5511 5508 5505 5501 5497 5493 5489 5486 5483 5480 5477 5474 5472 5469 5468 5466 5465 5465 5464 5464 5464 5464 5465 5467 5469 5470 5472 5475 5477 5480 5483 5486
5543 5539 5539 5534 5530 5527 5524 5520 5516 5512 5509 5506 5502 5498 5495 5491 5488 5484 5481 5477 5474 5471 5468 5465 5462 5460 5459 5457 5456 5455 5455 5454 5455 5455 5455 5456 5458 5459 5461 5463 5465 5468 5471 5473
5535 5534 5528 5524 5520 5517 5514 5511 5507 5504 5500 5497 5494 5490 5486 5483 5479 5476 5472 5469 5465 5462 5459 5456 5453 5451 5450 5448 5446 5446 5445 5445 5445 5445 5445 5446 5447 5448 5450 5452 5454 5457 5459 5462
5526 5524 5520 5515 5511 5508 5505 5501 5498 5495 5492 5488 5485 5481 5478 5474 5470 5467 5464 5460 5457 5454 5451 5448 5445 5442 5440 5438 5437 5436 5435 5435 5434 5435 5435 5436 5437 5437 5439 5441 5442 5445 5447 5450
5517 5515 5511 5507 5503 5500 5497 5493 5490 5486 5483 5480 5476 5473 5469 5466 5462 5458 5455 5452 5449 5446 5443 5439 5436 5433 5431 5429 5428 5427 5425 5425 5424 5424 5424 5425 5426 5427 5428 5429 5431 5433 5435 5438
5509 5506 5503 5500 5495 5492 5488 5485 5482 5478 5475 5471 5468 5464 5461 5457 5454 5450 5447 5444 5440 5437 5434 5431 5428 5425 5422 5420 5419 5417 5416 5415 5415 5414 5414 5414 5415 5416 5416 5418 5419 5421 5423 5425
5501 5497 5494 5491 5487 5484 5480 5477 5474 5470 5467 5464 5460 5456 5453 5449 5446 5442 5439 5436 5432 5429 5426 5422 5419 5417 5414 5412 5410 5409 5407 5406 5405 5405 5405 5404 5405 5406 5406 5408 5408 5410 5411 5413
5493 5489 5486 5483 5480 5476 5472 5469 5466 5462 5459 5455 5452 5449 5445 5442 5438 5435 5431 5428 5424 5421 5418 5415 5412 5409 5406 5404 5402 5400 5399 5397 5396 5396 5396 5395 5395 5395 5396 5397 5399 5399 5401 5402
5485 5481 5479 5475 5472 5468 5464 5461 5457 5454 5451 5447 5444 5441 5438 5434 5431 5427 5424 5420 5416 5413 5410 5407 5404 5401 5398 5396 5394 5392 5390 5389 5388 5387 5386 5386 5385 5386 5386 5387 5388 5390 5390 5392
5477 5473 5470 5467 5463 5460 5456 5453 5450 5446 5443 5440 5436 5433 5430 5426 5423 5419 5416 5412 5409 5405 5402 5399 5396 5393 5391 5388 5386 5383 5382 5380 5379 5378 5377 5377 5376 5377 5377 5377 5378 5380 5381 5382
5469 5465 5462 5459 5455 5452 5449 5445 5442 5439 5435 5432 5429 5426 5422 5419 5415 5411 5408 5404 5401 5397 5394 5391 5389 5386 5383 5381 5378 5376 5374 5373 5371 5370 5369 5369 5368 5368 5368 5369 5369 5370 5371 5372
5460 5457 5454 5451 5448 5444 5441 5438 5434 5431 5428 5425 5422 5418 5415 5412 5408 5404 5401 5397 5393 5390 5387 5384 5381 5378 5376 5373 5371 5369 5367 5365 5364 5363 5362 5361 5360 5360 5360 5360 5361 5361 5362 5363
5453 5450 5447 5444 5440 5437 5434 5431 5427 5424 5421 5418 5415 5411 5408 5404 5400 5397 5393 5390 5387 5383 5380 5377 5374 5371 5369 5366 5364 5362 5360 5358 5357 5355 5354 5353 5353 5352 5352 5352 5352 5353 5353 5354
5446 5443 5440 5436 5433 5430 5427 5424 5421 5417 5414 5411 5408 5404 5401 5397 5393 5390 5386 5383 5379 5376 5373 5370 5367 5364 5361 5359 5357 5354 5352 5351 5349 5348 5347 5346 5345 5344 5344 5344 5344 5344 5345 5345
5439 5436 5433 5429 5426 5423 5420 5417 5414 5411 5408 5404 5401 5397 5394 5390 5387 5383 5380 5376 5373 5369 5366 5363 5360 5357 5354 5352 5350 5348 5346 5344 5342 5341 5340 5338 5337 5337 5336 5336 5336 5336 5337 5337
5431 5428 5425 5422 5419 5416 5413 5410 5407 5404 5401 5398 5394 5391 5387 5384 5380 5377 5373 5370 5367 5363 5360 5356 5353 5350 5348 5346 5344 5342 5340 5338 5336 5335 5333 5332 5331 5330 5329 5329 5329 5329 5329 5329
5424 5421 5418 5416 5413 5410 5407 5404 5401 5398 5394 5391 5388 5384 5381 5377 5374 5371 5367 5364 5360 5356 5353 5350 5347 5344 5342 5340 5338 5336 5334 5332 5331 5329 5327 5326 5325 5324 5323 5323 5322 5322 5322 5322
5418 5415 5412 5409 5406 5403 5400 5397 5394 5391 5388 5385 5382 5378 5375 5371 5368 5364 5361 5358 5354 5350 5347 5343 5341 5338 5336 5334 5333 5331 5329 5327 5326 5324 5322 5321 5319 5318 5317 5317 5316 5316 5316 5316
5411 5408 5405 5403 5400 5397 5394 5391 5388 5385 5382 5379 5375 5372 5369 5366 5362 5359 5356 5352 5349 5345 5341 5338 5335 5332 5330 5329 5327 5326 5324 5322 5321 5319 5317 5316 5314 5313 5312 5311 5310 5310 5310 5310
5405 5402 5399 5396 5394 5391 5388 5385 5382 5379 5376 5373 5370 5366 5363 5360 5357 5354 5350 5347 5343 5340 5336 5333 5330 5327 5325 5323 5322 5320 5319 5317 5315 5314 5312 5310 5308 5307 5306 5305 5304 5304 5303 5303
5399 5396 5393 5391 5388 5385 5382 5379 5376 5374 5371 5368 5365 5361 5358 5355 5352 5348 5345 5342 5338 5335 5332 5328 5325 5323 5320 5318 5317 5315 5314 5312 5310 5308 5306 5305 5303 5301 5300 5299 5299 5298 5297 5297